Tracking 31027 objects as of 18-Jul-2025
HD Live streaming from Space Station
objects crossing your sky now

SL-8 R/B

Track SL-8 R/B now!
10-day predictions


NORAD ID: 12983
Int'l Code: 1981-116J
Perigee: 1,487.9 km
Apogee: 1,669.8 km
Inclination: 74.0 °
Period: 117.6 minutes
Semi major axis: 7949 km
RCS: 5.9807 m2 (large)
Launch date: November 28, 1981
Source: Commonwealth of Independent States (former USSR) (CIS)
Launch site: PLESETSK MISSILE AND SPACE COMPLEX (PKMTR)

Note: This is a ROCKET BODY
Your satellite tracking list
Your tracking list is empty




NASA's NSSDC Master Catalog

Two Line Element Set (TLE):
1 12983U 81116J   25199.54057168 -.00000044  00000-0 -26126-3 0  9992
2 12983  73.9820 252.8514 0114403 167.8562 299.8855 12.24798890685587
Source of the keplerian elements: AFSPC